EW3937 Weather Reports


Display with metric or nautical units.
time (UTC)temp
F
wind
direction
speed
MPH
gust
MPH
rain 1hr
in
rain 24hr
in
rain mn
in
humidity
%
barometer
mb
20260507042503 67 222 9.0 17.0 0.00 0.00 0.00 47 1012.8
20260507042003 67 224 10.0 18.0 0.00 0.00 0.00 48 1012.9
20260507041503 67 222 10.0 18.0 0.00 0.00 0.00 47 1012.8
20260507041003 67 221 9.0 20.0 0.00 0.00 0.00 47 1012.8
20260507040503 67 219 9.0 20.0 0.00 0.00 0.00 47 1012.9
20260507040004 68 218 9.0 18.0 0.00 0.00 0.00 48 1012.8
20260507035504 68 216 9.0 18.0 0.00 0.00 0.00 48 1012.8
20260507035003 68 216 10.0 15.0 0.00 0.00 0.00 49 1012.7
20260507034717 68 219 11.0 18.0 0.00 0.00 0.00 49 1012.7
20260507034003 68 218 11.0 21.0 0.00 0.00 0.00 47 1012.7
20260507033716 68 217 10.0 21.0 0.00 0.00 0.00 47 1012.7
20260507033003 68 219 9.0 21.0 0.00 0.00 0.00 47 1012.7
20260507032503 68 221 9.0 17.0 0.00 0.00 0.00 46 1012.7
20260507032004 69 222 9.0 18.0 0.00 0.00 0.00 45 1012.7
20260507031503 69 222 7.0 18.0 0.00 0.00 0.00 44 1012.7
20260507031003 69 221 6.0 15.0 0.00 0.00 0.00 44 1012.6
20260507030503 69 219 6.0 12.0 0.00 0.00 0.00 44 1012.7
20260507030003 69 217 6.0 10.0 0.00 0.00 0.00 45 1012.7
20260507025503 69 218 7.0 11.0 0.00 0.00 0.00 45 1012.7
20260507025003 69 222 8.0 13.0 0.00 0.00 0.00 45 1012.6
20260507024503 69 224 8.0 13.0 0.00 0.00 0.00 44 1012.6
20260507024003 70 220 8.0 13.0 0.00 0.00 0.00 44 1012.6
20260507023503 70 219 8.0 14.0 0.00 0.00 0.00 43 1012.6
20260507023003 70 221 8.0 14.0 0.00 0.00 0.00 44 1012.6
20260507022503 70 218 7.0 13.0 0.00 0.00 0.00 44 1012.6
20260507022217 70 218 7.0 13.0 0.00 0.00 0.00 43 1012.6
20260507021503 70 220 7.0 13.0 0.00 0.00 0.00 43 1012.6
20260507021217 70 221 7.0 13.0 0.00 0.00 0.00 43 1012.5
20260507020503 70 220 6.0 14.0 0.00 0.00 0.00 42 1012.5
20260507020217 70 218 5.0 14.0 0.00 0.00 0.00 43 1012.4
20260507015503 70 222 4.0 9.0 0.00 0.00 0.00 44 1012.6
20260507015003 70 227 4.0 9.0 0.00 0.00 0.00 44 1012.6
20260507014503 70 230 4.0 6.0 0.00 0.00 0.00 44 1012.6
20260507014003 70 226 4.0 9.0 0.00 0.00 0.00 43 1012.6
20260507013503 70 228 3.0 9.0 0.00 0.00 0.00 42 1012.6
20260507013003 71 227 3.0 7.0 0.00 0.00 0.00 42 1012.7
20260507012718 71 223 4.0 6.0 0.00 0.00 0.00 42 1012.7
20260507012003 71 217 5.0 11.0 0.00 0.00 0.00 41 1012.7
20260507011503 71 221 6.0 11.0 0.00 0.00 0.00 40 1012.7
20260507011003 71 221 5.0 11.0 0.00 0.00 0.00 40 1012.8
20260507010503 71 217 5.0 10.0 0.00 0.00 0.00 40 1012.7
20260507010003 71 220 5.0 9.0 0.00 0.00 0.00 42 1012.8
20260507005503 72 223 7.0 10.0 0.00 0.00 0.00 44 1012.8
20260507005003 72 220 9.0 17.0 0.00 0.00 0.00 43 1012.8
20260507004503 72 221 9.0 17.0 0.00 0.00 0.00 42 1012.8
20260507004003 72 222 8.0 17.0 0.00 0.00 0.00 43 1013.0
20260507003503 73 223 8.0 15.0 0.00 0.00 0.00 42 1013.0
20260507003003 73 225 7.0 16.0 0.00 0.00 0.00 42 1012.9
20260507002717 73 222 8.0 16.0 0.00 0.00 0.00 42 1013.0
20260507002003 73 215 9.0 16.0 0.00 0.00 0.00 41 1012.9
20260507001503 73 217 9.0 16.0 0.00 0.00 0.00 41 1012.9
20260507001003 74 219 8.0 18.0 0.00 0.00 0.00 41 1012.8
20260507000503 73 219 7.0 18.0 0.00 0.00 0.00 42 1012.9
20260507000219 73 221 8.0 15.0 0.00 0.00 0.00 42 1012.8
20260506235503 73 224 8.0 17.0 0.00 0.00 0.00 44 1012.9
20260506235003 73 221 7.0 18.0 0.00 0.00 0.00 42 1012.9
20260506234503 73 221 6.0 18.0 0.00 0.00 0.00 42 1012.9
20260506234218 73 223 6.0 13.0 0.00 0.00 0.00 42 1013.0
20260506233503 72 228 6.0 14.0 0.00 0.00 0.00 42 1013.0
20260506233218 72 225 6.0 14.0 0.00 0.00 0.00 43 1013.1
20260506232503 73 225 6.0 13.0 0.00 0.00 0.00 42 1013.0
20260506232218 73 229 6.0 13.0 0.00 0.00 0.00 43 1013.1
20260506231503 73 228 6.0 13.0 0.00 0.00 0.00 41 1013.2
20260506231218 73 229 6.0 14.0 0.00 0.00 0.00 40 1013.1
20260506230503 74 230 7.0 14.0 0.00 0.00 0.00 40 1013.2
20260506230003 74 228 8.0 16.0 0.00 0.00 0.00 41 1013.2
20260506225503 74 228 8.0 16.0 0.00 0.00 0.00 43 1013.2
20260506225003 74 226 9.0 15.0 0.00 0.00 0.00 42 1013.2
20260506224503 75 222 8.0 17.0 0.00 0.00 0.00 42 1013.3
20260506224003 74 225 8.0 17.0 0.00 0.00 0.00 42 1013.3
20260506223503 74 225 8.0 15.0 0.00 0.00 0.00 43 1013.4
20260506223003 74 222 7.0 16.0 0.00 0.00 0.00 41 1013.4
20260506222503 75 225 7.0 16.0 0.00 0.00 0.00 41 1013.3
20260506222004 74 228 7.0 15.0 0.00 0.00 0.00 43 1013.4
20260506221504 74 224 8.0 13.0 0.00 0.00 0.00 45 1013.4
20260506221003 73 224 9.0 15.0 0.00 0.00 0.00 45 1013.5
20260506220503 73 225 9.0 22.0 0.00 0.00 0.00 45 1013.5
20260506220003 73 223 8.0 22.0 0.00 0.00 0.00 44 1013.6
20260506215503 74 225 9.0 16.0 0.00 0.00 0.00 45 1013.7
20260506215003 73 227 10.0 18.0 0.00 0.00 0.00 45 1013.8
20260506214503 73 226 9.0 18.0 0.00 0.00 0.00 42 1013.8
20260506214003 73 225 8.0 26.0 0.00 0.00 0.00 40 1014.0
20260506213718 74 226 8.0 26.0 0.00 0.00 0.00 42 1014.0
20260506213217 74 221 9.0 17.0 0.00 0.00 0.00 45 1013.9
20260506212503 74 223 9.0 22.0 0.00 0.00 0.00 41 1013.9
20260506212003 74 228 9.0 22.0 0.00 0.00 0.00 42 1013.8
20260506211503 74 232 9.0 18.0 0.00 0.00 0.00 43 1013.8
20260506211003 74 231 9.0 18.0 0.00 0.00 0.00 43 1013.9
20260506210503 74 228 8.0 18.0 0.00 0.00 0.00 42 1013.9
20260506210003 74 232 6.0 18.0 0.00 0.00 0.00 44 1013.9
20260506205503 74 236 6.0 14.0 0.00 0.00 0.00 43 1014.0
20260506205217 74 234 6.0 14.0 0.00 0.00 0.00 44 1014.0
20260506204503 74 239 6.0 18.0 0.00 0.00 0.00 43 1014.0
20260506204003 74 237 5.0 18.0 0.00 0.00 0.00 44 1014.1
20260506203503 74 237 5.0 16.0 0.00 0.00 0.00 42 1014.1
20260506203003 75 233 5.0 16.0 0.00 0.00 0.00 42 1014.1
20260506202503 74 230 5.0 14.0 0.00 0.00 0.00 42 1014.2
20260506202003 74 235 6.0 14.0 0.00 0.00 0.00 43 1014.1
20260506201503 74 233 6.0 13.0 0.00 0.00 0.00 42 1014.1
20260506201003 74 229 5.0 15.0 0.00 0.00 0.00 43 1014.2
20260506200718 74 230 5.0 15.0 0.00 0.00 0.00 41 1014.2
20260506200003 74 239 7.0 14.0 0.00 0.00 0.00 42 1014.2
20260506195503 73 236 8.0 14.0 0.00 0.00 0.00 42 1014.2
20260506195003 74 228 8.0 17.0 0.00 0.00 0.00 41 1014.2
20260506194503 73 229 7.0 17.0 0.00 0.00 0.00 41 1014.1
20260506194217 73 227 6.0 16.0 0.00 0.00 0.00 40 1014.0
20260506193504 73 232 5.0 13.0 0.00 0.00 0.00 41 1014.1
20260506193003 73 237 5.0 11.0 0.00 0.00 0.00 41 1014.2
20260506192503 73 226 5.0 13.0 0.00 0.00 0.00 41 1014.3
20260506192216 74 221 4.0 13.0 0.00 0.00 0.00 42 1014.3
20260506191503 73 238 4.0 11.0 0.00 0.00 0.00 45 1014.5
20260506191003 72 237 5.0 9.0 0.00 0.00 0.00 44 1014.5
20260506190503 72 224 6.0 10.0 0.00 0.00 0.00 44 1014.5
20260506190216 72 224 6.0 12.0 0.00 0.00 0.00 44 1014.6
20260506185717 71 230 7.0 16.0 0.00 0.00 0.00 44 1014.6
20260506185003 71 223 5.0 16.0 0.00 0.00 0.00 44 1014.6
20260506184503 71 224 4.0 13.0 0.00 0.00 0.00 44 1014.6
20260506184003 70 234 4.0 12.0 0.00 0.00 0.00 46 1014.7
20260506183503 70 232 4.0 12.0 0.00 0.00 0.00 45 1014.7
20260506183218 71 233 4.0 11.0 0.00 0.00 0.00 44 1014.8
20260506182503 70 231 4.0 11.0 0.00 0.00 0.00 46 1014.8
20260506182003 70 230 4.0 9.0 0.00 0.00 0.00 47 1014.9
20260506181717 70 223 3.0 9.0 0.00 0.00 0.00 46 1014.9
20260506181003 71 208 2.0 9.0 0.00 0.00 0.00 45 1014.9
20260506180503 72 221 2.0 5.0 0.00 0.00 0.00 45 1014.9
20260506180004 71 229 2.0 5.0 0.00 0.00 0.00 48 1015.0
20260506175503 71 229 2.0 5.0 0.00 0.00 0.00 45 1015.0
20260506175003 70 241 1.0 6.0 0.00 0.00 0.00 45 1015.0
20260506174503 70 250 1.0 6.0 0.00 0.00 0.00 45 1015.0
20260506174218 70 253 1.0 6.0 0.00 0.00 0.00 46 1015.1
20260506173503 70 247 1.0 6.0 0.00 0.00 0.00 45 1015.1
20260506173218 69 261 1.0 2.0 0.00 0.00 0.00 48 1015.2
20260506172717 68 357 1.0 3.0 0.00 0.00 0.00 48 1015.2
20260506172003 68 51 1.0 4.0 0.00 0.00 0.00 47 1015.2
20260506171503 67 53 1.0 4.0 0.00 0.00 0.00 47 1015.1
20260506171003 67 5 1.0 4.0 0.00 0.00 0.00 46 1015.1
20260506170503 67 360 1.0 4.0 0.00 0.00 0.00 48 1015.2
20260506170003 67 39 1.0 3.0 0.00 0.00 0.00 46 1015.2
20260506165503 67 76 1.0 4.0 0.00 0.00 0.00 47 1015.1
20260506165003 66 82 0.0 4.0 0.00 0.00 0.00 48 1015.0
20260506164503 66 65 0.0 3.0 0.00 0.00 0.00 48 1015.0
20260506164003 66 30 1.0 3.0 0.00 0.00 0.00 49 1015.0
20260506163717 66 32 1.0 3.0 0.00 0.00 0.00 48 1015.1
20260506163003 65 64 1.0 3.0 0.00 0.00 0.00 50 1014.9
20260506162503 65 61 1.0 3.0 0.00 0.00 0.00 48 1015.0
20260506162003 64 52 1.0 3.0 0.00 0.00 0.00 48 1015.0
20260506161716 64 24 1.0 4.0 0.00 0.00 0.00 50 1015.0
20260506161003 63 13 1.0 7.0 0.00 0.00 0.00 50 1015.2
20260506160503 63 33 1.0 7.0 0.00 0.00 0.00 50 1015.2
20260506160003 63 37 1.0 3.0 0.00 0.00 0.00 51 1015.2
20260506155504 62 43 1.0 4.0 0.00 0.00 0.00 52 1015.2
20260506155003 62 24 1.0 4.0 0.00 0.00 0.00 50 1015.2
20260506154503 62 39 1.0 5.0 0.00 0.00 0.00 53 1015.2
20260506154003 61 46 0.0 5.0 0.00 0.00 0.00 54 1015.2
20260506153718 61 8 0.0 3.0 0.00 0.00 0.00 55 1015.1
20260506153003 60 39 1.0 6.0 0.00 0.00 0.00 55 1015.1
20260506152503 60 50 1.0 6.0 0.00 0.00 0.00 58 1015.2
20260506152003 60 63 1.0 3.0 0.00 0.00 0.00 58 1015.2
20260506151503 59 57 1.0 4.0 0.00 0.00 0.00 60 1015.3
20260506151003 59 43 1.0 4.0 0.00 0.00 0.00 59 1015.3
20260506150504 59 37 1.0 4.0 0.00 0.00 0.00 59 1015.2
20260506150217 58 27 1.0 3.0 0.00 0.00 0.00 60 1015.2
20260506145503 58 47 1.0 4.0 0.00 0.00 0.00 59 1015.1
20260506145003 58 48 0.0 3.0 0.00 0.00 0.00 58 1015.2
20260506144503 57 0 4.0 4.0 0.00 0.00 0.00 59 1015.2
20260506144217 57 0 4.0 4.0 0.00 0.00 0.00 61 1015.2
20260506143503 56 0 2.0 2.0 0.00 0.00 0.00 62 1015.2
20260506143003 56 0 1.0 1.0 0.00 0.00 0.00 64 1015.2
20260506142718 55 0 2.0 2.0 0.00 0.00 0.00 65 1015.2
20260506142003 54 0 2.0 2.0 0.00 0.00 0.00 64 1015.3
20260506141503 54 0 1.0 1.0 0.00 0.00 0.00 64 1015.2
20260506141003 53 0 2.0 2.0 0.00 0.00 0.00 65 1015.2
20260506140503 52 105 4.0 4.0 0.00 0.00 0.00 67 1015.3
20260506140003 51 100 4.0 4.0 0.00 0.00 0.00 67 1015.3
20260506135503 50 0 1.0 1.0 0.00 0.00 0.00 68 1015.2
20260506135003 43 0 3.0 3.0 0.00 0.00 0.00 75 1015.2
20260506134503 43 0 3.0 3.0 0.00 0.00 0.00 75 1015.3
20260506134003 43 0 3.0 3.0 0.00 0.00 0.00 75 1015.1
20260506133503 43 0 3.0 3.0 0.00 0.00 0.00 75 1015.1
20260506133003 43 0 3.0 3.0 0.00 0.00 0.00 75 1015.0
20260506132503 43 0 3.0 3.0 0.00 0.00 0.00 75 1014.9
20260506132003 43 0 3.0 3.0 0.00 0.00 0.00 75 1014.9
20260506131503 43 0 3.0 3.0 0.00 0.00 0.00 75 1014.7
20260506131003 43 0 3.0 3.0 0.00 0.00 0.00 75 1014.7
20260506130503 43 0 3.0 3.0 0.00 0.00 0.00 75 1014.7
20260506130004 43 0 3.0 3.0 0.00 0.00 0.00 75 1014.8
20260506125503 43 0 3.0 3.0 0.00 0.00 0.00 75 1014.6
20260506125003 43 0 3.0 3.0 0.00 0.00 0.00 75 1014.6
20260506124503 43 0 3.0 3.0 0.00 0.00 0.00 75 1014.5
20260506124004 43 0 3.0 3.0 0.00 0.00 0.00 75 1014.5
20260506123717 43 0 3.0 3.0 0.00 0.00 0.00 76 1014.5
20260506123003 44 0 2.0 2.0 0.00 0.00 0.00 76 1014.5
20260506122503 43 0 1.0 1.0 0.00 0.00 0.00 77 1014.5
20260506122218 43 0 1.0 1.0 0.00 0.00 0.00 77 1014.5
20260506121503 43 0 1.0 1.0 0.00 0.00 0.00 77 1014.5
20260506121003 43 0 1.0 1.0 0.00 0.00 0.00 77 1014.5
20260506120503 43 0 1.0 1.0 0.00 0.00 0.00 78 1014.5
20260506120004 43 0 0.0 1.0 0.00 0.00 0.00 78 1014.5
20260506115503 43 0 0.0 1.0 0.00 0.00 0.00 78 1014.4
20260506115003 42 0 0.0 0.0 0.00 0.00 0.00 80 1014.4
20260506114503 42 149 1.0 2.0 0.00 0.00 0.00 81 1014.4
20260506114003 42 149 0.0 2.0 0.00 0.00 0.00 81 1014.3
20260506113503 43 0 2.0 2.0 0.00 0.00 0.00 79 1014.5
20260506113003 43 0 2.0 2.0 0.00 0.00 0.00 79 1014.4
20260506112503 43 0 0.0 0.0 0.00 0.00 0.00 79 1014.3
20260506112003 43 0 1.0 1.0 0.00 0.00 0.00 79 1014.4
20260506111503 44 0 1.0 1.0 0.00 0.00 0.00 79 1014.4
20260506111003 43 0 1.0 1.0 0.00 0.00 0.00 79 1014.5
20260506110503 43 0 2.0 2.0 0.00 0.00 0.00 79 1014.4
20260506110003 44 0 2.0 2.0 0.00 0.00 0.00 78 1014.4
20260506105503 44 0 1.0 1.0 0.00 0.00 0.00 78 1014.4
20260506105003 44 0 1.0 1.0 0.00 0.00 0.00 78 1014.4
20260506104503 42 0 2.0 2.0 0.00 0.00 0.00 80 1014.4
20260506104003 42 0 2.0 2.0 0.00 0.00 0.00 81 1014.3
20260506103503 42 0 2.0 2.0 0.00 0.00 0.00 81 1014.3
20260506103003 43 0 1.0 1.0 0.00 0.00 0.00 79 1014.3
20260506102503 44 0 1.0 1.0 0.00 0.00 0.00 77 1014.2
20260506102003 44 0 1.0 1.0 0.00 0.00 0.00 77 1014.1
20260506101503 44 0 1.0 1.0 0.00 0.00 0.00 77 1014.1
20260506101003 44 0 1.0 1.0 0.00 0.00 0.00 78 1014.1
20260506100503 44 0 1.0 1.0 0.00 0.00 0.00 79 1014.2
20260506100217 43 0 1.0 1.0 0.00 0.00 0.00 80 1014.2
20260506095503 43 0 0.0 0.0 0.00 0.00 0.00 80 1014.2
20260506095003 43 0 0.0 0.0 0.00 0.00 0.00 80 1014.2
20260506094503 43 0 0.0 0.0 0.00 0.00 0.00 80 1014.2
20260506094003 43 0 0.0 0.0 0.00 0.00 0.00 79 1014.2
20260506093503 43 0 0.0 0.0 0.00 0.00 0.00 79 1014.2
20260506093003 44 0 0.0 0.0 0.00 0.00 0.00 78 1014.1
20260506092503 44 0 1.0 1.0 0.00 0.00 0.00 78 1014.2
20260506092003 44 0 1.0 1.0 0.00 0.00 0.00 77 1014.2
20260506091503 44 0 1.0 1.0 0.00 0.00 0.00 77 1014.1
20260506091003 44 0 0.0 1.0 0.00 0.00 0.00 78 1014.1
20260506090503 43 0 1.0 1.0 0.00 0.00 0.00 80 1014.1
20260506090003 43 0 0.0 1.0 0.00 0.00 0.00 80 1014.0
20260506085503 43 0 1.0 1.0 0.00 0.00 0.00 81 1014.1
20260506085003 42 0 0.0 1.0 0.00 0.00 0.00 82 1014.1
20260506084503 42 0 0.0 0.0 0.00 0.00 0.00 81 1014.0
20260506084216 42 0 0.0 0.0 0.00 0.00 0.00 82 1014.0
20260506083503 42 0 0.0 1.0 0.00 0.00 0.00 81 1014.0
20260506083003 43 0 0.0 1.0 0.00 0.00 0.00 81 1014.0
20260506082503 43 164 1.0 1.0 0.00 0.00 0.00 81 1013.9
20260506082003 43 161 1.0 4.0 0.00 0.00 0.00 81 1013.8
20260506081503 43 178 1.0 4.0 0.00 0.00 0.00 81 1013.8
20260506081003 43 188 1.0 4.0 0.00 0.00 0.00 82 1013.7
20260506080503 42 181 0.0 4.0 0.00 0.00 0.00 83 1013.7
20260506073503 42 0 0.0 0.0 0.00 0.00 0.00 81 1013.7
20260506073003 42 0 0.0 0.0 0.00 0.00 0.00 81 1013.7
20260506072503 43 0 1.0 1.0 0.00 0.00 0.00 79 1013.6
20260506072003 44 0 1.0 1.0 0.00 0.00 0.00 78 1013.7
20260506071503 44 0 1.0 1.0 0.00 0.00 0.00 78 1013.5
20260506071003 44 0 1.0 1.0 0.00 0.00 0.00 78 1013.5
20260506070503 44 0 2.0 2.0 0.00 0.00 0.00 79 1013.5
20260506062503 43 0 0.0 0.0 0.00 0.00 0.00 79 1013.2
20260506062218 43 0 0.0 0.0 0.00 0.00 0.00 79 1013.1
20260506061716 44 0 0.0 0.0 0.00 0.00 0.00 79 1013.1
20260506061218 44 0 0.0 0.0 0.00 0.00 0.00 79 1013.1
20260506060503 44 0 0.0 0.0 0.00 0.00 0.00 79 1013.1
20260506051003 46 0 0.0 0.0 0.00 0.00 0.00 72 1012.8
20260506050503 46 0 0.0 0.0 0.00 0.00 0.00 73 1012.8
20260506045003 47 0 0.0 0.0 0.00 0.00 0.00 72 1012.7
20260506044503 47 0 0.0 0.0 0.00 0.00 0.00 71 1012.7
20260506044003 48 0 0.0 0.0 0.00 0.00 0.00 69 1012.7
20260506043503 48 0 0.0 0.0 0.00 0.00 0.00 68 1012.8